ROMMA est une association bénévole à but non lucratif. Votre soutien est indispensable : ADHERER à ROMMA ou FAIRE un DON

Chambon - (38, Isère)

Oisans (2460 m)   Longitude: 06° 10' 42" E   Latitude: 45° 01' 32" N Station partenaire n°803
 

Détail journalier du     <<     >>

Température Humidité Vent Dir Rafale Dir. rafale Neige 1 Neige 2
Heure (°C) (%) (km/h) (km/h) (cm) (cm)
01:00 -13.18623NE49ENE163223
02:00 -11.23029NE49NE164221
03:00 -8.51824NE53NE163220
04:00 -6.83434NE66ENE162219
05:00 -5.32841ENE74ENE161221
06:00 -4.43840ENE70ENE161219
07:00 -3.63736ENE65ENE164218
08:00 -3.93733NE59ENE163217
09:00 -3.53725NE41NE163217
10:00 -1.93619NE37NE163217
11:00 -0.8338NNE21NNE163216
12:00 0.4326NNE14SO163216
13:00 0.9195SSO15SO163216
14:00 0.2287SSO19SO163216
15:00 0.62713SO24SO163216
16:00 0.53118SSO34SSO163216
17:00 0.13519SSO33SSO163216
18:00 -0.43424SSO46SSO162216
19:00 -0.73226SSO50SSO164216
20:00 -1.02926SSO48SO163216
21:00 -1.14728SO48SO163216
22:00 -1.76132SO49SO164216
23:00 -2.16430SO53OSO164216
minuit -2.46328SO53SO164216

Graphique du 12-03-2019

 

Serveur OMMA